N9EA Weather Reports


time (UTC)temp
F
wind
direction
speed
knots
gust
knots
rain 1hr
in
rain 24hr
in
rain mn
in
humidity
%
barometer
mb
20260906070009 72 303 0.0 0.0 0.00 0.00 0.00 82 1016.5
20260906065508 72 302 0.0 0.0 0.00 0.00 0.00 82 1016.5
20260906065003 72 301 0.0 0.0 0.00 0.00 0.00 82 1016.7
20260906064459 72 306 0.0 0.0 0.00 0.00 0.00 82 1016.4
20260906063954 72 305 0.0 0.0 0.00 0.00 0.00 82 1016.9
20260906063450 72 323 0.0 0.0 0.00 0.00 0.00 82 1016.5
20260906062950 72 324 0.0 0.0 0.00 0.00 0.00 82 1016.8
20260906062445 73 324 0.0 0.0 0.00 0.00 0.00 82 1016.3
20260906061940 73 324 0.0 0.0 0.00 0.00 0.00 82 1016.7
20260906061436 73 330 0.0 0.0 0.00 0.00 0.00 82 1016.5
20260906060930 73 330 0.0 0.0 0.00 0.00 0.00 82 1016.5
20260906060427 73 330 0.0 0.0 0.00 0.00 0.00 82 1016.4
20260906055923 73 324 0.0 0.0 0.00 0.00 0.00 82 1016.3
20260906055419 73 304 0.0 0.0 0.00 0.00 0.00 82 1016.3
20260906054914 73 303 0.0 0.0 0.00 0.00 0.00 81 1016.4
20260906054409 73 303 0.0 0.0 0.00 0.00 0.00 81 1016.4
20260906053905 74 328 0.0 0.0 0.00 0.00 0.00 81 1016.5
20260906053401 74 329 0.0 0.0 0.00 0.00 0.00 81 1016.5
20260906052856 74 329 0.0 0.0 0.00 0.00 0.00 81 1016.7
20260906052352 74 329 0.0 0.0 0.00 0.00 0.00 81 1016.5
20260906051849 74 328 0.0 0.0 0.00 0.00 0.00 80 1016.7
20260906051349 74 328 0.0 0.0 0.00 0.00 0.00 80 1016.3
20260906050845 74 329 0.0 0.0 0.00 0.00 0.00 80 1016.5
20260906050339 74 329 0.0 0.0 0.00 0.00 0.00 80 1016.2
20260906045838 74 330 0.0 0.0 0.00 0.00 0.00 80 1016.4
20260906045332 74 324 0.0 0.0 0.00 0.00 0.00 80 1016.3
20260906044829 74 320 0.0 0.0 0.00 0.00 0.00 80 1016.1
20260906044329 74 323 0.0 0.0 0.00 0.00 0.00 80 1016.0
20260906043827 75 329 0.0 0.0 0.00 0.00 0.00 80 1015.9
20260906043321 75 328 0.0 0.0 0.00 0.00 0.00 80 1015.9
20260906042821 75 329 0.0 0.0 0.00 0.00 0.00 80 1015.9
20260906042320 75 330 0.0 0.0 0.00 0.00 0.00 79 1015.8
20260906041815 75 331 0.0 0.0 0.00 0.00 0.00 79 1015.8
20260906041311 75 324 0.0 0.0 0.00 0.00 0.00 79 1015.5
20260906040805 75 325 0.0 0.0 0.00 0.00 0.00 80 1015.4
20260906040301 75 324 0.0 0.0 0.00 0.00 0.00 80 1015.4
20260906035756 75 324 0.0 0.0 0.00 0.00 0.00 80 1015.2
20260906035252 75 323 0.0 0.0 0.00 0.00 0.00 80 1015.5
20260906034752 75 323 0.0 0.0 0.00 0.00 0.00 80 1015.2
20260906034252 75 323 0.0 0.0 0.00 0.00 0.00 79 1015.0
20260906033748 75 323 0.0 0.0 0.00 0.00 0.00 79 1015.4
20260906033247 75 323 0.0 0.0 0.00 0.00 0.00 79 1015.2
20260906032743 75 323 0.0 0.0 0.00 0.00 0.00 80 1015.3
20260906032243 75 323 0.0 0.0 0.00 0.00 0.00 80 1015.2
20260906031739 75 323 0.0 0.0 0.00 0.00 0.00 80 1014.8
20260906031234 75 323 0.0 0.0 0.00 0.00 0.00 80 1014.8
20260906030729 75 323 0.0 0.0 0.00 0.00 0.00 80 1014.9
20260906030224 75 323 0.0 0.0 0.00 0.00 0.00 80 1014.7
20260906025723 75 323 0.0 0.0 0.00 0.00 0.00 80 1014.8
20260906025218 75 323 0.0 0.0 0.00 0.00 0.00 80 1014.7
20260906024717 75 323 0.0 0.0 0.00 0.00 0.00 80 1014.7
20260906024216 75 323 0.0 0.0 0.00 0.00 0.00 80 1014.8
20260906023712 75 323 0.0 0.0 0.00 0.00 0.00 79 1014.6
20260906023207 75 324 0.0 0.0 0.00 0.00 0.00 79 1014.5
20260906022703 75 324 0.0 0.0 0.00 0.00 0.00 79 1014.8
20260906022158 75 324 0.0 0.0 0.00 0.00 0.00 79 1014.7
20260906021654 75 324 0.0 0.0 0.00 0.00 0.00 79 1014.7
20260906021152 75 324 0.0 0.0 0.00 0.00 0.00 79 1014.5
20260906020647 75 324 0.0 0.0 0.00 0.00 0.00 78 1014.5
20260906020142 76 324 0.0 0.0 0.00 0.00 0.00 78 1014.4
20260906015636 76 324 0.0 0.0 0.00 0.00 0.00 78 1014.3
20260906015134 76 324 0.0 0.0 0.00 0.00 0.00 78 1014.3
20260906014629 76 324 0.0 0.0 0.00 0.00 0.00 78 1014.2
20260906014126 76 324 0.0 0.0 0.00 0.00 0.00 77 1014.1
20260906013620 77 324 0.0 0.0 0.00 0.00 0.00 77 1014.1
20260906013116 77 324 0.0 0.0 0.00 0.00 0.00 76 1014.0
20260906012610 77 324 0.0 0.0 0.00 0.00 0.00 76 1014.2
20260906012105 77 324 0.0 0.0 0.00 0.00 0.00 76 1014.0
20260906011601 77 322 0.0 0.0 0.00 0.00 0.00 75 1014.3
20260906011055 77 324 0.0 0.0 0.00 0.00 0.00 75 1014.3
20260906010551 78 322 0.0 0.0 0.00 0.00 0.00 75 1014.1
20260906010047 78 323 0.0 0.0 0.00 0.00 0.00 75 1014.2
20260906005546 78 327 0.0 0.0 0.00 0.00 0.00 75 1014.2
20260906005045 78 306 0.0 0.0 0.00 0.00 0.00 75 1014.2
20260906004544 78 302 0.0 0.0 0.00 0.00 0.00 75 1014.2
20260906004040 79 322 0.0 0.0 0.00 0.00 0.00 75 1014.1
20260906003535 79 330 0.0 0.0 0.00 0.00 0.00 74 1014.2
20260906003031 79 330 0.0 0.0 0.00 0.00 0.00 74 1014.2
20260906002531 80 331 0.0 0.0 0.00 0.00 0.00 74 1014.2
20260906002025 80 302 0.0 0.0 0.00 0.00 0.00 73 1014.2
20260906001521 80 332 0.0 0.0 0.00 0.00 0.00 73 1014.2
20260906001016 81 301 0.0 0.0 0.00 0.00 0.00 73 1014.0
20260906000512 81 299 0.0 0.0 0.00 0.00 0.00 73 1014.2
20260906000012 81 323 0.0 0.0 0.00 0.00 0.00 73 1013.8
20260905235506 82 304 0.0 0.0 0.00 0.00 0.00 73 1013.6
20260905235000 82 335 0.0 0.0 0.00 0.00 0.00 72 1013.7
20260905234456 82 315 0.0 0.0 0.00 0.00 0.00 72 1013.8
20260905233950 83 303 0.0 0.0 0.00 0.00 0.00 71 1013.8
20260905233447 83 308 0.0 0.0 0.00 0.00 0.00 71 1013.9
20260905232945 83 304 0.0 0.0 0.00 0.00 0.00 71 1013.7
20260905232442 83 329 0.0 0.0 0.00 0.00 0.00 71 1013.9
20260905231936 84 329 0.0 0.0 0.00 0.00 0.00 71 1013.8
20260905231432 84 318 0.0 0.0 0.00 0.00 0.00 70 1013.8
20260905230923 85 329 0.0 0.0 0.00 0.00 0.00 71 1013.7
20260905230420 86 332 0.0 0.0 0.00 0.00 0.00 70 1013.6
20260905225919 87 329 0.0 0.0 0.00 0.00 0.00 69 1013.6
20260905225414 87 331 0.0 0.0 0.00 0.00 0.00 68 1013.6
20260905224909 87 323 0.0 0.0 0.00 0.00 0.00 68 1013.6
20260905224405 87 324 0.0 0.0 0.00 0.00 0.00 68 1013.8
20260905223900 87 323 0.0 0.0 0.00 0.00 0.00 68 1013.3
20260905223357 87 323 0.0 0.0 0.00 0.00 0.00 68 1013.2
20260905222852 87 332 0.0 0.0 0.00 0.00 0.00 67 1013.2
20260905222351 87 322 0.0 0.0 0.00 0.00 0.00 68 1013.3
20260905221847 87 324 0.0 0.0 0.00 0.00 0.00 67 1013.1
20260905221343 87 324 0.0 0.0 0.00 0.00 0.00 67 1013.3
20260905220838 87 323 0.0 0.0 0.00 0.00 0.00 68 1013.2
20260905220335 88 323 0.0 0.0 0.00 0.00 0.00 68 1013.4
20260905215834 87 322 0.0 0.0 0.00 0.00 0.00 69 1013.4
20260905215329 88 324 0.0 0.0 0.00 0.00 0.00 68 1013.3
20260905214826 88 322 0.0 0.0 0.00 0.00 0.00 68 1013.2
20260905214321 88 324 0.0 0.0 0.00 0.00 0.00 67 1013.2
20260905213816 88 315 0.0 0.0 0.00 0.00 0.00 67 1013.0
20260905213313 89 320 0.0 0.0 0.00 0.00 0.00 66 1013.0
20260905212813 89 324 0.0 0.0 0.00 0.00 0.00 67 1013.0
20260905212313 89 321 0.0 0.0 0.00 0.00 0.00 67 1012.9
20260905211807 89 324 0.0 0.0 0.00 0.00 0.00 68 1012.8
20260905211302 89 324 0.0 0.0 0.00 0.00 0.00 67 1013.0
20260905210759 90 320 0.0 0.0 0.00 0.00 0.00 67 1013.0
20260905210258 91 332 0.0 0.0 0.00 0.00 0.00 66 1013.1
20260905205757 91 331 0.0 0.0 0.00 0.00 0.00 66 1013.0
20260905205252 91 325 0.0 0.0 0.00 0.00 0.00 64 1013.0
20260905204751 92 324 0.0 0.0 0.00 0.00 0.00 64 1013.2
20260905204248 91 321 0.0 0.0 0.00 0.00 0.00 65 1013.1
20260905203747 92 323 0.0 0.0 0.00 0.00 0.00 63 1013.3
20260905203242 91 323 0.0 0.0 0.00 0.00 0.00 64 1013.2
20260905202738 93 318 0.0 0.0 0.00 0.00 0.00 63 1013.5
20260905202238 92 327 0.0 0.0 0.00 0.00 0.00 63 1013.2
20260905201733 92 325 0.0 0.0 0.00 0.00 0.00 63 1013.3
20260905201228 92 328 0.0 0.0 0.00 0.00 0.00 63 1013.1
20260905200723 92 329 0.0 0.0 0.00 0.00 0.00 63 1013.1
20260905200219 91 323 0.0 0.0 0.00 0.00 0.00 64 1013.1
20260905195717 91 325 0.0 0.0 0.00 0.00 0.00 64 1013.1
20260905195213 93 329 0.0 0.0 0.00 0.00 0.00 63 1013.2
20260905194708 92 315 0.0 0.0 0.00 0.00 0.00 63 1013.2
20260905194207 91 306 0.0 0.0 0.00 0.00 0.00 64 1013.3
20260905193701 92 324 0.0 0.0 0.00 0.00 0.00 64 1013.4
20260905193156 91 324 0.0 0.0 0.00 0.00 0.00 64 1013.4
20260905192652 93 326 0.0 0.0 0.00 0.00 0.00 63 1013.7
20260905192149 92 323 0.0 0.0 0.00 0.00 0.00 63 1013.2
20260905191648 91 324 0.0 0.0 0.00 0.00 0.00 63 1013.5
20260905191146 92 324 0.0 0.0 0.00 0.00 0.00 63 1013.4
20260905190644 93 324 0.0 0.0 0.00 0.00 0.00 62 1013.4
20260905190144 93 318 0.0 0.0 0.00 0.00 0.00 62 1013.4
20260905185637 92 313 0.0 0.0 0.00 0.00 0.00 63 1013.6
20260905185132 92 323 0.0 0.0 0.00 0.00 0.00 63 1013.7
20260905184632 91 324 0.0 0.0 0.00 0.00 0.00 64 1013.5
20260905184131 91 324 0.0 0.0 0.00 0.00 0.00 64 1013.6
20260905183631 93 324 0.0 0.0 0.00 0.00 0.00 62 1013.4
20260905183126 93 324 0.0 0.0 0.00 0.00 0.00 63 1013.6
20260905182625 92 323 0.0 0.0 0.00 0.00 0.00 63 1013.6
20260905182125 91 324 0.0 0.0 0.00 0.00 0.00 63 1013.8
20260905181620 91 324 0.0 0.0 0.00 0.00 0.00 64 1013.8
20260905181119 91 324 0.0 0.0 0.00 0.00 0.00 63 1013.8
20260905180614 91 318 0.0 0.0 0.00 0.00 0.00 64 1013.6
20260905180110 91 324 0.0 0.0 0.00 0.00 0.00 64 1013.7
20260905175609 92 324 0.0 0.0 0.00 0.00 0.00 62 1013.8
20260905175104 92 323 0.0 0.0 0.00 0.00 0.00 62 1013.8
20260905174600 92 323 0.0 0.0 0.00 0.00 0.00 63 1014.0
20260905174055 91 324 0.0 0.0 0.00 0.00 0.00 62 1013.9
20260905173552 91 324 0.0 0.0 0.00 0.00 0.00 62 1014.1
20260905173047 91 324 0.0 0.0 0.00 0.00 0.00 63 1013.9
20260905172545 91 324 0.0 0.0 0.00 0.00 0.00 62 1014.0
20260905172040 91 324 0.0 0.0 0.00 0.00 0.00 63 1014.1
20260905171537 91 324 0.0 0.0 0.00 0.00 0.00 62 1014.1
20260905171033 92 324 0.0 0.0 0.00 0.00 0.00 61 1014.1
20260905170529 91 324 0.0 0.0 0.00 0.00 0.00 63 1014.0
20260905170024 91 316 0.0 0.0 0.00 0.00 0.00 62 1014.2
20260905165519 90 324 0.0 0.0 0.00 0.00 0.00 63 1014.2
20260905165014 90 323 0.0 0.0 0.00 0.00 0.00 63 1014.2
20260905164514 89 317 0.0 0.0 0.00 0.00 0.00 64 1014.3
20260905164008 90 323 0.0 0.0 0.00 0.00 0.00 64 1014.3
20260905163504 89 324 0.0 0.0 0.00 0.00 0.00 63 1014.2
20260905163000 90 323 0.0 0.0 0.00 0.00 0.00 64 1014.3
20260905162456 89 317 0.0 0.0 0.00 0.00 0.00 64 1014.3
20260905161950 89 314 0.0 0.0 0.00 0.00 0.00 65 1014.2
20260905161449 88 324 0.0 0.0 0.00 0.00 0.00 65 1014.1
20260905160948 88 322 0.0 0.0 0.00 0.00 0.00 66 1014.1
20260905160442 89 320 0.0 0.0 0.00 0.00 0.00 65 1014.2
20260905155936 88 305 0.0 0.0 0.00 0.00 0.00 64 1014.2
20260905155431 88 324 0.0 0.0 0.00 0.00 0.00 65 1014.1
20260905154929 88 322 0.0 0.0 0.00 0.00 0.00 65 1014.2
20260905154425 88 323 0.0 0.0 0.00 0.00 0.00 65 1014.2
20260905153921 88 316 0.0 0.0 0.00 0.00 0.00 67 1014.1
20260905153417 88 317 0.0 0.0 0.00 0.00 0.00 67 1014.3
20260905152916 87 326 0.0 0.0 0.00 0.00 0.00 67 1014.1
20260905152416 87 319 0.0 0.0 0.00 0.00 0.00 68 1014.2
20260905151911 87 319 0.0 0.0 0.00 0.00 0.00 68 1014.1
20260905151407 87 321 0.0 0.0 0.00 0.00 0.00 66 1014.2
20260905150906 88 323 0.0 0.0 0.00 0.00 0.00 66 1013.9
20260905150400 87 324 0.0 0.0 0.00 0.00 0.00 66 1014.0
20260905145857 87 321 0.0 0.0 0.00 0.00 0.00 66 1013.8
20260905145352 86 323 0.0 0.0 0.00 0.00 0.00 67 1013.8
20260905144851 87 320 0.0 0.0 0.00 0.00 0.00 67 1014.0
20260905144342 87 319 0.0 0.0 0.00 0.00 0.00 67 1013.7
20260905143840 86 323 0.0 0.0 0.00 0.00 0.00 68 1013.7
20260905143334 86 317 0.0 0.0 0.00 0.00 0.00 69 1013.6
20260905142833 85 323 0.0 0.0 0.00 0.00 0.00 70 1013.6
20260905142327 85 318 0.0 0.0 0.00 0.00 0.00 71 1013.6
20260905141824 84 320 0.0 0.0 0.00 0.00 0.00 74 1013.4
20260905141324 84 318 0.0 0.0 0.00 0.00 0.00 75 1013.5
20260905140820 84 317 0.0 0.0 0.00 0.00 0.00 74 1013.6
20260905140319 84 318 0.0 0.0 0.00 0.00 0.00 75 1013.2
20260905135818 83 318 0.0 0.0 0.00 0.00 0.00 76 1013.4
20260905135314 83 318 0.0 0.0 0.00 0.00 0.00 76 1013.3
20260905134809 83 317 0.0 0.0 0.00 0.00 0.00 76 1013.2
20260905134303 82 317 0.0 0.0 0.00 0.00 0.00 76 1013.3
20260905133803 82 317 0.0 0.0 0.00 0.00 0.00 77 1013.4
20260905133258 81 317 0.0 0.0 0.00 0.00 0.00 78 1013.1
20260905132757 81 317 0.0 0.0 0.00 0.00 0.00 78 1013.2
20260905132253 81 317 0.0 0.0 0.00 0.00 0.00 78 1013.3
20260905131747 81 317 0.0 0.0 0.00 0.00 0.00 78 1013.3
20260905131237 81 316 0.0 0.0 0.00 0.00 0.00 78 1013.3
20260905130731 81 316 0.0 0.0 0.00 0.00 0.00 79 1013.2
20260905130231 80 316 0.0 0.0 0.00 0.00 0.00 80 1013.4
20260905125726 80 317 0.0 0.0 0.00 0.00 0.00 81 1013.3
20260905125221 79 317 0.0 0.0 0.00 0.00 0.00 82 1013.3
20260905124718 79 317 0.0 0.0 0.00 0.00 0.00 83 1013.0
20260905124213 78 317 0.0 0.0 0.00 0.00 0.00 84 1013.1
20260905123708 78 317 0.0 0.0 0.00 0.00 0.00 85 1013.1
20260905123206 78 317 0.0 0.0 0.00 0.00 0.00 85 1012.9
20260905122704 78 317 0.0 0.0 0.00 0.00 0.00 86 1013.0
20260905122159 77 317 0.0 0.0 0.00 0.00 0.00 86 1013.2
20260905121654 77 317 0.0 0.0 0.00 0.00 0.00 87 1013.0
20260905121150 77 317 0.0 0.0 0.00 0.00 0.00 88 1012.9
20260905120649 76 317 0.0 0.0 0.00 0.00 0.00 88 1012.7
20260905120143 76 317 0.0 0.0 0.00 0.00 0.00 88 1012.5
20260905115638 76 317 0.0 0.0 0.00 0.00 0.00 88 1012.3
20260905115133 76 317 0.0 0.0 0.00 0.00 0.00 87 1012.3
20260905114632 76 317 0.0 0.0 0.00 0.00 0.00 87 1012.2
20260905114130 76 317 0.0 0.0 0.00 0.00 0.00 87 1012.0
20260905113620 76 317 0.0 0.0 0.00 0.00 0.00 87 1012.2
20260905113115 76 317 0.0 0.0 0.00 0.00 0.00 87 1012.1
20260905112609 76 317 0.0 0.0 0.00 0.00 0.00 87 1012.0
20260905112106 76 317 0.0 0.0 0.00 0.00 0.00 86 1012.0
20260905111601 76 317 0.0 0.0 0.00 0.00 0.00 86 1012.0
20260905111059 76 317 0.0 0.0 0.00 0.00 0.00 86 1011.8
20260905110558 76 317 0.0 0.0 0.00 0.00 0.00 86 1011.9
20260905110049 76 317 0.0 0.0 0.00 0.00 0.00 86 1012.0
20260905105548 76 317 0.0 0.0 0.00 0.00 0.00 86 1012.0
20260905105048 77 317 0.0 0.0 0.00 0.00 0.00 85 1012.0
20260905104544 77 317 0.0 0.0 0.00 0.00 0.00 85 1011.9
20260905104043 77 317 0.0 0.0 0.00 0.00 0.00 85 1012.2
20260905103539 77 317 0.0 0.0 0.00 0.00 0.00 85 1012.0
20260905103035 77 317 0.0 0.0 0.00 0.00 0.00 85 1011.9
20260905102530 77 317 0.0 0.0 0.00 0.00 0.00 84 1012.0
20260905102026 77 317 0.0 0.0 0.00 0.00 0.00 84 1011.9
20260905101524 77 317 0.0 0.0 0.00 0.00 0.00 84 1012.0
20260905101023 77 317 0.0 0.0 0.00 0.00 0.00 83 1012.1
20260905100520 78 317 0.0 0.0 0.00 0.00 0.00 83 1011.8
20260905100014 78 317 0.0 0.0 0.00 0.00 0.00 82 1012.1
20260905095509 78 317 0.0 0.0 0.00 0.00 0.00 82 1012.2
20260905095004 78 317 0.0 0.0 0.00 0.00 0.00 82 1012.1
20260905094459 78 317 0.0 0.0 0.00 0.00 0.00 81 1012.0
20260905093957 78 317 0.0 0.0 0.00 0.00 0.00 81 1012.1
20260905093453 79 317 0.0 0.0 0.00 0.00 0.00 81 1012.2
20260905092949 79 317 0.0 0.0 0.00 0.00 0.00 81 1012.1
20260905092443 79 317 0.0 0.0 0.00 0.00 0.00 81 1012.1
20260905091938 79 317 0.0 0.0 0.00 0.00 0.00 81 1012.1
20260905091432 79 317 0.0 0.0 0.00 0.00 0.00 82 1012.0
20260905090931 78 317 0.0 0.0 0.00 0.00 0.00 82 1012.0
20260905090427 78 317 0.0 0.0 0.00 0.00 0.00 83 1011.7
20260905085927 78 317 0.0 0.0 0.00 0.00 0.00 83 1012.0
20260905085425 78 317 0.0 0.0 0.00 0.00 0.00 83 1012.1
20260905084922 78 317 0.0 0.0 0.00 0.00 0.00 83 1012.1
20260905084421 78 317 0.0 0.0 0.00 0.00 0.00 83 1012.2
20260905083916 78 317 0.0 0.0 0.00 0.00 0.00 83 1012.2
20260905083412 79 317 0.0 0.0 0.00 0.00 0.00 82 1012.3
20260905082907 79 317 0.0 0.0 0.00 0.00 0.00 82 1012.4
20260905082403 79 317 0.0 0.0 0.00 0.00 0.00 82 1012.4
20260905081853 79 317 0.0 0.0 0.00 0.00 0.00 82 1012.5
20260905081348 79 317 0.0 0.0 0.00 0.00 0.00 81 1012.3
20260905080846 79 317 0.0 0.0 0.00 0.00 0.00 81 1012.5
20260905080341 79 317 0.0 0.0 0.00 0.00 0.00 80 1012.5
20260905075840 79 317 0.0 0.0 0.00 0.00 0.00 80 1012.5
20260905075340 79 317 0.0 0.0 0.00 0.00 0.00 80 1012.3
20260905074839 79 317 0.0 0.0 0.00 0.00 0.00 80 1012.3
20260905074335 80 317 0.0 0.0 0.00 0.00 0.00 80 1012.2
20260905073831 80 317 0.0 0.0 0.00 0.00 0.00 80 1012.4
20260905073325 80 317 0.0 0.0 0.00 0.00 0.00 80 1012.5
20260905072820 80 317 0.0 0.0 0.00 0.00 0.00 80 1012.4
20260905072315 80 317 0.0 0.0 0.00 0.00 0.00 80 1012.4
20260905071812 80 317 0.0 0.0 0.00 0.00 0.00 80 1012.4
20260905071308 80 317 0.0 0.0 0.00 0.00 0.00 80 1012.4
20260905070802 80 317 0.0 0.0 0.00 0.00 0.00 80 1012.4